| time (UTC) | temp F | wind direction | speed knots | gust knots | rain 1hr in | rain 24hr in | rain mn in | humidity % | barometer mb |
| 20260508171556 | 59 | 152 | 4.3 | 13.9 | 0.00 | 0.87 | 0.01 | 63 | 998.9 |
| 20260508170055 | 60 | 155 | 5.2 | 17.4 | 0.00 | 0.87 | 0.01 | 60 | 998.9 |
| 20260508164558 | 62 | 142 | 3.5 | 7.8 | 0.00 | 0.88 | 0.01 | 58 | 998.6 |
| 20260508163047 | 60 | 351 | 1.7 | 7.0 | 0.00 | 0.88 | 0.01 | 55 | 998.6 |
| 20260508161545 | 60 | 65 | 0.9 | 4.3 | 0.00 | 0.88 | 0.01 | 53 | 998.8 |
| 20260508160042 | 59 | 91 | 0.0 | 3.5 | 0.00 | 0.88 | 0.01 | 52 | 998.7 |
| 20260508154539 | 60 | 75 | 4.3 | 7.8 | 0.00 | 0.88 | 0.01 | 53 | 998.8 |
| 20260508153037 | 60 | 80 | 1.7 | 5.2 | 0.00 | 0.88 | 0.01 | 55 | 998.9 |
| 20260508151530 | 59 | 77 | 3.5 | 7.8 | 0.00 | 0.88 | 0.01 | 53 | 999.0 |
| 20260508150029 | 59 | 160 | 2.6 | 7.8 | 0.00 | 0.88 | 0.01 | 56 | 999.3 |
| 20260508144521 | 59 | 55 | 2.6 | 4.3 | 0.00 | 0.88 | 0.01 | 60 | 999.4 |
| 20260508143018 | 58 | 28 | 5.2 | 8.7 | 0.00 | 0.88 | 0.01 | 60 | 999.7 |
| 20260508141516 | 58 | 11 | 3.5 | 7.0 | 0.00 | 0.88 | 0.01 | 61 | 999.8 |
| 20260508140013 | 58 | 170 | 2.6 | 4.3 | 0.00 | 0.88 | 0.01 | 63 | 1000.1 |
| 20260508134511 | 57 | 91 | 1.7 | 7.8 | 0.00 | 0.88 | 0.01 | 65 | 1000.3 |
| 20260508133005 | 56 | 94 | 2.6 | 8.7 | 0.00 | 0.88 | 0.01 | 70 | 1000.1 |
| 20260508131559 | 55 | 5 | 2.6 | 6.1 | 0.00 | 0.88 | 0.01 | 72 | 1000.0 |
| 20260508130054 | 54 | 355 | 1.7 | 7.8 | 0.00 | 0.88 | 0.01 | 73 | 1000.0 |
| 20260508124549 | 53 | 26 | 1.7 | 7.0 | 0.00 | 0.88 | 0.01 | 78 | 999.8 |
| 20260508123046 | 52 | 24 | 2.6 | 7.0 | 0.00 | 0.88 | 0.01 | 82 | 999.9 |
| 20260508121545 | 51 | 92 | 0.9 | 1.7 | 0.00 | 0.88 | 0.01 | 89 | 1000.1 |
| 20260508120041 | 49 | 92 | 0.9 | 2.6 | 0.00 | 0.88 | 0.01 | 93 | 1000.2 |
| 20260508114530 | 47 | 90 | 0.0 | 2.6 | 0.00 | 0.88 | 0.01 | 94 | 1000.4 |
| 20260508113030 | 45 | 93 | 0.9 | 2.6 | 0.00 | 0.88 | 0.01 | 94 | 1000.5 |
| 20260508111530 | 44 | 88 | 0.9 | 2.6 | 0.00 | 0.88 | 0.01 | 94 | 1000.4 |
| 20260508110024 | 43 | 89 | 0.0 | 1.7 | 0.00 | 0.88 | 0.01 | 94 | 1001.0 |
| 20260508104522 | 41 | 89 | 0.0 | 1.7 | 0.00 | 0.88 | 0.01 | 94 | 1001.4 |
| 20260508103024 | 41 | 89 | 0.0 | 0.0 | 0.00 | 0.88 | 0.01 | 94 | 1000.9 |
| 20260508101518 | 40 | 89 | 0.0 | 0.0 | 0.00 | 0.88 | 0.01 | 94 | 1001.1 |
| 20260508100015 | 40 | 89 | 0.0 | 0.9 | 0.00 | 0.88 | 0.01 | 94 | 1001.1 |
| 20260508094512 | 40 | 90 | 0.0 | 0.9 | 0.00 | 0.88 | 0.01 | 94 | 1000.6 |
| 20260508093010 | 39 | 90 | 0.0 | 1.7 | 0.00 | 0.88 | 0.01 | 94 | 1000.4 |
| 20260508091507 | 39 | 90 | 0.0 | 1.7 | 0.00 | 0.88 | 0.01 | 94 | 1000.3 |
| 20260508090005 | 39 | 90 | 0.0 | 1.7 | 0.00 | 0.88 | 0.01 | 93 | 1000.4 |
| 20260508084504 | 39 | 90 | 0.0 | 1.7 | 0.00 | 0.88 | 0.01 | 93 | 1000.0 |
| 20260508083109 | 40 | 90 | 0.0 | 0.9 | 0.00 | 0.88 | 0.01 | 93 | 999.7 |
| 20260508081604 | 40 | 90 | 0.0 | 0.9 | 0.00 | 0.88 | 0.01 | 93 | 999.6 |
| 20260508080104 | 40 | 90 | 0.0 | 1.7 | 0.00 | 0.88 | 0.01 | 93 | 999.5 |
| 20260508074550 | 41 | 90 | 0.0 | 0.9 | 0.00 | 0.88 | 0.01 | 93 | 999.6 |
| 20260508073051 | 41 | 90 | 0.0 | 0.0 | 0.00 | 0.88 | 0.01 | 93 | 999.8 |
| 20260508071541 | 42 | 90 | 0.0 | 0.0 | 0.00 | 0.88 | 0.01 | 93 | 999.9 |
| 20260508070038 | 42 | 90 | 0.0 | 0.9 | 0.00 | 0.88 | 0.01 | 93 | 1000.0 |
| 20260508064534 | 43 | 90 | 0.9 | 1.7 | 0.00 | 0.88 | 0.01 | 93 | 999.7 |
| 20260508063031 | 44 | 90 | 0.0 | 1.7 | 0.00 | 0.88 | 0.01 | 93 | 999.9 |
| 20260508061529 | 44 | 90 | 0.0 | 0.9 | 0.00 | 0.88 | 0.01 | 93 | 1000.0 |
| 20260508060024 | 44 | 90 | 0.0 | 0.9 | 0.00 | 0.88 | 0.01 | 94 | 999.8 |
| 20260508054522 | 44 | 90 | 0.0 | 1.7 | 0.00 | 0.88 | 0.01 | 93 | 1000.0 |
| 20260508053019 | 44 | 90 | 0.9 | 1.7 | 0.00 | 0.88 | 0.01 | 93 | 1000.3 |
| 20260508051526 | 44 | 90 | 0.0 | 0.0 | 0.00 | 0.88 | 0.01 | 93 | 1000.2 |
| 20260508050011 | 45 | 90 | 0.9 | 1.7 | 0.00 | 0.88 | 0.01 | 93 | 1000.1 |
| 20260508044511 | 45 | 90 | 0.0 | 0.0 | 0.00 | 0.88 | 0.01 | 93 | 1000.1 |
| 20260508043014 | 45 | 90 | 0.0 | 0.0 | 0.00 | 0.88 | 0.01 | 93 | 1000.1 |
| 20260508041505 | 45 | 90 | 0.0 | 0.9 | 0.00 | 0.88 | 0.01 | 93 | 1000.1 |
| 20260508034559 | 46 | 90 | 0.0 | 0.0 | 0.01 | 0.88 | 0.01 | 93 | 1000.4 |
| 20260508033058 | 47 | 90 | 0.0 | 0.0 | 0.01 | 0.88 | 0.01 | 93 | 1000.4 |
| 20260508031548 | 47 | 90 | 0.0 | 0.0 | 0.01 | 0.88 | 0.01 | 93 | 1000.4 |
| 20260508030044 | 47 | 90 | 0.0 | 0.0 | 0.00 | 0.87 | 0.00 | 93 | 1000.6 |
| 20260508024551 | 48 | 90 | 0.0 | 0.9 | 0.00 | 0.87 | 0.87 | 93 | 1000.5 |
| 20260508023038 | 48 | 90 | 0.0 | 0.9 | 0.00 | 0.87 | 0.87 | 93 | 1000.6 |
| 20260508021535 | 48 | 90 | 0.0 | 1.7 | 0.00 | 0.87 | 0.87 | 93 | 1000.7 |
| 20260508020038 | 48 | 90 | 0.0 | 0.9 | 0.00 | 0.87 | 0.87 | 93 | 1000.7 |
| 20260508014530 | 48 | 90 | 0.0 | 1.7 | 0.01 | 0.87 | 0.87 | 93 | 1000.7 |
| 20260508013028 | 48 | 90 | 0.9 | 4.3 | 0.01 | 0.87 | 0.87 | 93 | 1000.6 |
| 20260508011525 | 49 | 58 | 1.7 | 3.5 | 0.01 | 0.87 | 0.87 | 93 | 1000.5 |
| 20260508010021 | 50 | 217 | 0.0 | 0.9 | 0.02 | 0.87 | 0.87 | 93 | 1000.4 |
| 20260508004517 | 50 | 217 | 0.0 | 1.7 | 0.02 | 0.87 | 0.87 | 93 | 1000.5 |
| 20260508003015 | 50 | 217 | 0.0 | 2.6 | 0.02 | 0.87 | 0.87 | 93 | 1000.5 |
| 20260508001512 | 50 | 217 | 0.9 | 3.5 | 0.02 | 0.87 | 0.87 | 93 | 1000.5 |
| 20260508000011 | 50 | 232 | 2.6 | 7.0 | 0.01 | 0.86 | 0.86 | 93 | 1000.5 |
| 20260507234508 | 50 | 227 | 3.5 | 7.0 | 0.00 | 0.85 | 0.85 | 92 | 1000.5 |
| 20260507233005 | 51 | 208 | 2.6 | 4.3 | 0.00 | 0.85 | 0.85 | 92 | 999.9 |
| 20260507231502 | 51 | 182 | 2.6 | 6.1 | 0.00 | 0.85 | 0.85 | 92 | 999.9 |
| 20260507230003 | 52 | 190 | 0.9 | 2.6 | 0.00 | 0.85 | 0.85 | 92 | 999.9 |
| 20260507224504 | 52 | 190 | 0.0 | 1.7 | 0.00 | 0.85 | 0.85 | 92 | 999.9 |
| 20260507223100 | 52 | 190 | 0.0 | 0.0 | 0.00 | 0.85 | 0.85 | 92 | 1000.0 |
| 20260507221557 | 52 | 190 | 0.0 | 2.6 | 0.00 | 0.85 | 0.85 | 92 | 999.9 |
| 20260507220055 | 52 | 190 | 0.9 | 4.3 | 0.00 | 0.85 | 0.85 | 92 | 1000.0 |
| 20260507214554 | 53 | 161 | 0.9 | 2.6 | 0.00 | 0.85 | 0.85 | 92 | 1000.1 |
| 20260507213053 | 53 | 161 | 0.0 | 2.6 | 0.01 | 0.85 | 0.85 | 92 | 1000.0 |
| 20260507211550 | 52 | 161 | 0.9 | 4.3 | 0.01 | 0.85 | 0.85 | 92 | 1000.3 |
| 20260507210049 | 52 | 186 | 0.9 | 7.0 | 0.01 | 0.85 | 0.85 | 92 | 1000.3 |
| 20260507204552 | 52 | 211 | 0.0 | 5.2 | 0.02 | 0.84 | 0.84 | 92 | 999.9 |
| 20260507203047 | 52 | 241 | 2.6 | 5.2 | 0.08 | 0.84 | 0.84 | 93 | 999.9 |
| 20260507201544 | 51 | 225 | 0.0 | 1.7 | 0.13 | 0.84 | 0.84 | 93 | 999.6 |
| 20260507200038 | 51 | 225 | 0.0 | 1.7 | 0.16 | 0.84 | 0.84 | 93 | 1000.1 |
| 20260507194535 | 51 | 225 | 0.0 | 1.7 | 0.19 | 0.82 | 0.82 | 92 | 1000.5 |
| 20260507193031 | 51 | 226 | 0.0 | 2.6 | 0.20 | 0.76 | 0.76 | 92 | 1001.7 |
| 20260507191528 | 51 | 220 | 1.7 | 3.5 | 0.24 | 0.72 | 0.72 | 92 | 1002.2 |
| 20260507190027 | 51 | 233 | 0.0 | 5.2 | 0.28 | 0.69 | 0.69 | 91 | 1002.1 |
| 20260507184525 | 51 | 215 | 1.7 | 6.1 | 0.35 | 0.63 | 0.63 | 91 | 1002.5 |
| 20260507183026 | 51 | 237 | 1.7 | 7.0 | 0.47 | 0.56 | 0.56 | 91 | 1002.6 |
| 20260507181521 | 51 | 218 | 3.5 | 7.0 | 0.43 | 0.48 | 0.48 | 91 | 1002.8 |
| 20260507180018 | 52 | 210 | 6.1 | 13.0 | 0.38 | 0.39 | 0.39 | 90 | 1003.2 |
| 20260507174615 | 52 | 223 | 6.1 | 12.2 | 0.28 | 0.28 | 0.28 | 90 | 1003.2 |
| 20260507173025 | 53 | 219 | 6.1 | 9.6 | 0.08 | 0.08 | 0.08 | 90 | 1002.5 |